This is the latest recevied weather packets stored in our database for station/object WD7OO. If no packets are shown the sender has not sent any weather packets the latest 10 day(s).
| Time | Temp. | Humidity | Pressure | Rain* | Wind** | Luminosity | Snow |
|---|---|---|---|---|---|---|---|
| 1788359053 | 28.89° C | 73% | 1016.3 hPa | 0 mm | - | 434 W/m² | - |
| 1788358748 | 28.89° C | 76% | 1016.4 hPa | 0 mm | - | 439 W/m² | - |
| 1788358443 | 28.89° C | 75% | 1016.6 hPa | 0 mm | - | 237 W/m² | - |
| 1788358142 | 28.89° C | 74% | 1016.4 hPa | 0 mm | - | 225 W/m² | - |
| 1788357838 | 29.44° C | 75% | 1016.3 hPa | 0 mm | - | 344 W/m² | - |
| 1788357532 | 28.89° C | 76% | 1016.4 hPa | 0 mm | - | 359 W/m² | - |
| 1788357228 | 28.89° C | 77% | 1016.3 hPa | 0 mm | - | 304 W/m² | - |
| 1788356927 | 28.89° C | 78% | 1016.3 hPa | 0 mm | - | 273 W/m² | - |
| 1788356622 | 28.33° C | 78% | 1016.4 hPa | 0 mm | - | 285 W/m² | - |
| 1788356318 | 28.33° C | 79% | 1016.3 hPa | 0 mm | - | 244 W/m² | - |
| 1788356017 | 27.78° C | 81% | 1016.3 hPa | 0 mm | - | 218 W/m² | - |
| 1788355712 | 27.78° C | 80% | 1016.3 hPa | 0 mm | - | 242 W/m² | - |
| 1788355407 | 27.22° C | 83% | 1016.1 hPa | 0 mm | - | 196 W/m² | - |
| 1788355103 | 27.22° C | 84% | 1016.2 hPa | 0 mm | - | 159 W/m² | - |
| 1788354800 | 27.22° C | 84% | 1016.4 hPa | 0 mm | - | 162 W/m² | - |
| 1788354499 | 26.67° C | 84% | 1016.5 hPa | 0 mm | - | 150 W/m² | - |
| 1788354195 | 26.67° C | 86% | 1016.4 hPa | 0 mm | - | 133 W/m² | - |
| 1788353890 | 26.67° C | 87% | 1016.4 hPa | 0 mm | - | 131 W/m² | - |
| 1788353586 | 25.56° C | 90% | 1016.6 hPa | 0 mm | - | 123 W/m² | - |
| 1788353282 | 25.56° C | 90% | 1016.3 hPa | 0 mm | - | 104 W/m² | - |
| 1788352977 | 25° C | 91% | 1016.5 hPa | 0 mm | - | 86 W/m² | - |
| 1788352672 | 25° C | 92% | 1016.8 hPa | 0 mm | - | 84 W/m² | - |
| 1788352368 | 24.44° C | 93% | 1016.6 hPa | 0 mm | - | 79 W/m² | - |
| 1788352067 | 23.89° C | 94% | 1016.6 hPa | 0 mm | - | 72 W/m² | - |
| 1788351788 | 23.89° C | 95% | 1016.6 hPa | 0 mm | - | 64 W/m² | - |
* Rain latest hour (hover to see other rain measurements)
** Current wind speed in m/s (hover to see current wind gust speed)